• Processing (Info)

  • MPEC 2013-T96 : 2013 TS132

    The following Minor Planet Electronic Circular may be linked-to from your own Web pages, but must not otherwise be redistributed electronically.

    A form allowing access to any MPEC is at the bottom of this page.


    Read MPEC 2013-T95 Read MPEC 2013-T97


    M.P.E.C. 2013-T96                                Issued 2013 Oct. 13, 14:43 UT
    
         The Minor Planet Electronic Circulars contain information on unusual
             minor planets and routine data on comets.  They are published
       on behalf of Commission 20 of the International Astronomical Union by the
              Minor Planet Center, Smithsonian Astrophysical Observatory,
                              Cambridge, MA 02138, U.S.A.
    
                 Prepared using the Tamkin Foundation Computer Network
    
                                  MPC@CFA.HARVARD.EDU
                URL http://www.minorplanetcenter.net/    ISSN 1523-6714
    
                                      2013 TS132
    
    Observations:
         K13TD2S* C2013 10 10.39117 23 16 07.271+00 16 43.54         20.9 gLET096F51
         K13TD2S  C2013 10 10.40296 23 16 06.815+00 16 26.76         21.0 gLET096F51
         K13TD2S KC2013 10 11.18576223 15 42.71 -00 02 08.6          20.8 VuET096H21
         K13TD2S KC2013 10 11.19037623 15 42.55 -00 02 15.0          20.6 VuET096H21
         K13TD2S KC2013 10 11.19435623 15 42.43 -00 02 21.1          20.2 VuET096H21
         K13TD2S KC2013 10 11.19818723 15 42.31 -00 02 26.3          20.5 VuET096H21
         K13TD2S KC2013 10 11.20281923 15 42.14 -00 02 32.5          20.5 VuET096H21
         K13TD2S 2C2013 10 11.56821 23 15 31.17 -00 10 51.1          19.7 RuET096E10
         K13TD2S 2C2013 10 11.57491 23 15 31.00 -00 11 00.1          19.8 RuET096E10
         K13TD2S KC2013 10 12.17034 23 15 14.67 -00 25 15.6          20.2 RoET096291
         K13TD2S KC2013 10 12.17316 23 15 14.58 -00 25 19.6          20.0 RoET096291
         K13TD2S KC2013 10 12.17599 23 15 14.48 -00 25 23.1          20.6 RoET096291
         K13TD2S  C2013 10 12.20197 23 15 13.62 -00 26 00.3          20.6 RoET096926
         K13TD2S  C2013 10 12.22015 23 15 13.01 -00 26 25.5          21.0 RoET096926
         K13TD2S  C2013 10 12.23627 23 15 12.45 -00 26 47.8          20.8 RoET096926
         K13TD2S KC2013 10 13.14276 23 14 49.07 -00 47 57.6          20.0 RoET096291
         K13TD2S KC2013 10 13.14563 23 14 48.99 -00 48 01.5          20.0 RoET096291
         K13TD2S KC2013 10 13.14850 23 14 48.91 -00 48 05.6          19.9 RoET096291
    
    Observer details:
    291 LPL/Spacewatch II.  Observer T. H. Bressi.  1.8-m f/2.7 reflector + CCD.
    926 Tenagra II Observatory.  Observers M. Schwartz, P. R. Holvorcem.  0.81-m
        f/7 Ritchey-Chretien + CCD.
    E10 Siding Spring-Faulkes Telescope South.  Observers E. Guido, N. Howes,
        M. Nicolini.  2.0-m f/10.0 Ritchey-Chretien + CCD.
    F51 Pan-STARRS 1, Haleakala.  Observers N. Primak, A. Schultz. T. Goggia,
        M. Willman.  Measurer PS1 Science Consortium.  1.8-m Ritchey-Chretien
        + CCD.
    H21 Astronomical Research Observatory, Westfield.  Observer R. Holmes.
        Measurers R. Holmes, T. Linder, S. Foglia, L. Buzzi, T. Vorobjov.  0.81-m
        f/4.0 astrograph + CCD.
    
    Orbital elements:
    2013 TS132                                               Earth MOID = 0.3340 AU
    Epoch 2013 Nov. 4.0 TT = JDT 2456600.5                  MPC
    M 330.38173              (2000.0)            P               Q
    n   0.38131694     Peri.  243.29800     +0.19796326     -0.97867604
    a   1.8834119      Node   195.57909     +0.95615067     +0.20511415
    e   0.3291361      Incl.   11.77503     +0.21583891     -0.01101809
    P   2.58           H   20.0           G   0.15           U   8
    Residuals in seconds of arc
    131010 F51  0.0   0.1+    131011 H21  0.3+  0.1-    131012 926  0.1-  0.3-
    131010 F51  0.1-  0.1+    131011 E10  0.3+  0.1-    131012 926  0.2-  0.1+
    131011 H21  0.1-  0.3-    131011 E10  1.2+  0.4+    131012 926  0.6-  0.4+
    131011 H21  0.1-  0.2-    131012 291  0.2-  0.1+    131013 291  0.0   0.1-
    131011 H21  0.2+  0.7-    131012 291  0.2-  0.0     131013 291  0.1+  0.0
    131011 H21  0.4+  0.5-    131012 291  0.3-  0.5+    131013 291  0.2+  0.1-
    
    Ephemeris:
    2013 TS132               a,e,i = 1.88, 0.33, 12                  q = 1.2635
    Date    TT    R. A. (2000) Decl.     Delta      r     Elong.  Phase     V
    2013 09 13    23 38 06.9 +10 03 41   0.6451  1.6390   165.6     8.8    20.7
    ...
    2013 09 28    23 25 05.0 +05 09 29   0.5823  1.5741   166.5     8.6    20.4
    ...
    2013 10 06    23 18 48.8 +02 01 38   0.5673  1.5402   157.8    14.2    20.5
    ...
    2013 10 12    23 15 19.2 -00 21 07   0.5640  1.5152   150.7    18.8    20.6
    2013 10 13    23 14 52.3 -00 44 29   0.5640  1.5111   149.5    19.6    20.6
    2013 10 14    23 14 28.0 -01 07 39   0.5642  1.5070   148.3    20.4    20.7
    ...
    2013 10 20    23 12 59.2 -03 21 03   0.5686  1.4827   141.3    24.8    20.8
    ...
    2013 10 28    23 13 45.7 -05 58 02   0.5816  1.4513   132.5    30.3    20.9
    ...
    2013 11 12    23 24 09.8 -09 27 17   0.6215  1.3965   118.4    38.6    21.2
    
    A. U. Tomatic                (C) Copyright 2013 MPC           M.P.E.C. 2013-T96
    

    Read MPEC 2013-T95 Read MPEC 2013-T97


    MPEC number:

    Enter an MPEC number in one of the following forms:

    • 1997-B01 (the full form)
    • J97B01 (the packed version of the full form)
    • B01 (the abbreviated form)